Temperature
16 17 17 17 17 18 20 22 23 23 23 22 22 22 21 20 20 17 16 16 15 15 15 15 15 15 15 15 15 15 15 15 14 14 14 15 15 15 15 15 15 15 15 15 15 15 15 15 15
16 16 17 18 18 18 20 22 22 22 21 21 21 21 21 19 18 16 16 15 15 15 15 15 15 15 15 15 15 15 14 14 14 14 14 14 14 14 14 15 15 15 15 15 15 15 15 15 15
16 17 17 18 19 19 21 22 21 21 21 21 21 20 20 18 17 16 15 15 14 14 15 15 15 14 14 15 14 14 14 14 14 14 14 14 14 14 14 14 14 14 14 15 15 15 15 15 15
16 17 18 18 19 21 21 22 21 21 21 21 21 19 18 17 16 16 15 15 14 14 14 14 14 14 14 14 14 14 14 14 14 14 14 14 14 14 14 14 14 14 14 14 14 14 15 15 15
16 17 17 18 19 21 21 22 21 21 20 20 20 19 17 16 16 15 15 14 14 14 14 14 14 14 14 14 14 14 14 14 14 14 14 14 14 14 14 14 14 14 14 14 14 14 14 14 14
17 18 17 18 20 21 21 21 21 21 20 20 20 19 16 16 16 15 14 14 14 14 14 14 14 14 14 14 14 14 14 14 14 14 14 14 14 14 14 14 14 14 14 14 14 14 14 14 14
17 17 17 18 19 20 20 20 20 20 20 20 19 18 16 15 15 14 14 14 14 13 13 13 13 13 13 13 13 13 14 13 14 14 14 14 13 14 14 14 14 13 14 14 14 14 14 14 14
16 16 18 18 19 20 20 20 19 19 19 19 19 18 16 15 14 14 14 13 13 13 13 13 13 13 13 13 13 13 13 13 13 13 13 13 13 13 13 13 13 13 13 13 13 13 13 13 13
16 15 16 18 19 19 19 19 19 18 18 18 17 17 16 15 14 13 13 13 13 13 13 13 13 13 13 13 13 13 13 13 13 13 13 13 13 13 13 13 13 13 13 13 13 13 13 13 13
16 14 16 18 18 18 18 18 18 17 17 17 16 15 15 14 14 13 13 13 12 12 12 12 12 12 12 12 12 12 12 12 12 12 12 12 12 12 12 12 12 13 13 13 12 12 12 12 13
16 15 17 17 17 17 17 17 17 17 16 16 16 15 14 14 13 13 12 12 12 12 12 12 12 12 12 12 12 12 12 12 12 12 12 12 12 12 12 12 12 12 12 12 12 12 12 12 12
16 16 16 16 16 16 16 16 16 16 16 16 16 15 14 13 13 13 12 12 12 12 12 12 12 12 12 12 12 12 12 12 12 12 12 11 11 11 12 12 12 12 12 12 12 12 12 12 12
15 15 16 15 15 15 15 15 15 15 15 15 15 14 14 13 12 12 12 12 11 11 11 11 12 12 12 12 11 11 11 11 11 11 11 11 11 11 11 11 11 11 11 11 11 11 11 11 11
15 15 15 15 15 14 14 14 14 14 14 14 14 13 13 12 12 12 11 11 11 11 11 11 11 11 11 11 11 11 11 11 11 11 11 11 11 11 11 11 11 11 11 11 11 11 11 11 11
14 13 14 14 14 14 13 13 13 14 14 14 13 13 12 12 11 11 11 11 11 11 11 11 11 11 11 11 11 11 11 11 11 11 11 11 11 11 11 11 11 10 11 10 11 11 11 11 11
13 13 13 14 14 14 13 12 14 14 14 13 13 12 11 11 11 10 10 10 10 10 10 10 10 11 11 11 11 11 10 10 10 10 11 11 10 10 10 10 10 10 10 10 10 10 10 10 10
13 12 12 13 14 14 12 12 13 14 13 13 12 11 11 10 10 9 9 9 10 10 10 10 10 10 10 10 10 10 10 10 10 10 10 10 10 10 10 10 10 10 10 10 10 10 10 10 10
11 12 12 13 13 13 12 12 12 13 13 12 11 11 10 10 9 9 9 9 9 9 9 9 10 10 10 10 10 10 10 10 10 10 10 10 10 10 10 10 10 10 10 10 10 9 9 9 9
12 11 11 12 13 12 11 11 12 12 11 11 10 10 10 9 9 8 8 8 8 8 8 9 9 9 9 9 9 9 9 9 10 10 10 10 10 9 10 9 9 9 9 9 9 9 9 9 9
11 10 10 11 12 11 11 11 11 11 10 10 10 9 9 8 8 8 7 7 7 7 8 8 8 8 9 9 9 9 9 9 9 9 9 9 9 9 9 9 9 9 9 9 9 9 9 9 9
10 10 10 10 10 11 10 10 10 10 10 9 9 8 8 8 7 7 7 7 7 7 7 7 7 8 8 8 8 8 8 8 8 9 9 9 9 9 9 9 9 9 9 8 8 8 9 9 8
9 10 9 9 8 8 10 8 9 9 9 8 8 8 7 7 7 6 6 6 6 6 7 7 7 7 7 8 8 8 8 8 8 8 8 8 8 8 8 8 8 8 8 8 8 8 8 8 8
9 9 9 9 8 7 8 8 8 9 8 8 7 7 6 6 6 5 5 5 5 5 6 6 6 7 7 7 7 7 7 7 7 7 7 7 8 8 8 8 8 8 8 8 8 8 8 8 8
8 8 8 8 7 6 8 8 7 7 7 7 6 6 5 5 5 4 4 5 5 5 5 5 6 6 6 6 6 7 7 7 7 7 7 7 7 7 7 7 7 7 7 7 7 7 7 7 7
7 6 6 6 6 6 8 7 6 6 6 6 5 4 4 4 4 3 3 3 4 4 4 5 5 5 5 6 6 6 6 6 6 7 6 6 7 7 7 7 7 7 7 7 7 7 7 7 7
6 6 5 5 6 7 8 6 5 5 5 5 4 3 3 3 3 2 3 3 3 3 3 4 4 4 5 5 5 5 5 5 6 6 6 6 6 6 6 6 6 6 6 6 6 6 6 6 6
6 5 6 5 5 5 6 6 5 5 4 3 3 2 2 2 2 2 2 2 2 2 3 3 3 4 4 4 4 5 5 5 5 5 5 5 5 5 5 5 6 5 5 6 6 6 6 6 6
5 5 4 4 4 5 6 6 3 3 2 2 2 2 1 1 1 1 1 2 2 2 2 2 2 3 3 4 4 4 4 4 4 4 4 5 5 5 5 5 5 5 5 5 5 5 5 5 5
4 4 4 4 4 4 4 4 3 2 2 1 1 1 1 0 0 1 1 1 1 1 2 2 2 2 2 2 3 3 4 4 4 4 4 4 4 4 4 4 4 5 5 5 5 5 5 5 5
4 4 3 2 3 3 3 2 2 1 1 1 1 0 0 0 -0 -0 0 0 1 1 1 1 1 1 1 2 2 3 3 3 3 3 3 3 3 4 4 4 4 4 4 4 4 4 4 4 4
Wind_Speed
11 11 6 3 3 5 7 4 0 3 3 5 6 5 5 6 5 6 4 6 10 10 14 14 12 11 10 10 9 8 8 7 7 7 7 7 6 6 6 6 7 7 8 8 8 9 9 9 9
10 5 4 3 4 5 5 2 2 5 6 5 4 3 3 5 6 7 4 6 9 11 12 12 11 10 10 9 9 8 7 7 7 7 6 6 6 6 6 7 7 7 8 8 8 8 8 8 8
9 5 4 3 4 4 1 3 6 7 6 2 1 3 3 4 6 5 5 7 8 10 12 12 11 9 9 9 8 8 7 7 6 6 6 6 5 5 6 7 7 7 7 8 8 8 8 8 8
4 3 4 4 8 5 3 3 7 5 4 1 1 3 4 5 4 6 7 7 8 9 13 12 11 9 8 8 8 7 6 6 6 6 5 5 5 6 6 7 7 7 7 7 8 7 8 7 6
4 3 4 6 8 5 2 3 4 2 3 3 1 3 5 4 8 9 7 6 7 8 11 11 11 9 9 8 7 7 6 6 6 5 5 5 5 6 6 7 7 7 7 6 7 7 7 6 5
3 3 4 7 6 3 1 1 1 1 1 2 1 1 5 5 6 7 6 5 6 7 9 11 10 10 8 7 6 6 6 6 5 5 5 5 5 5 6 6 6 7 6 6 6 6 6 6 5
3 3 6 7 5 3 1 2 0 1 1 1 1 1 5 5 6 6 6 5 6 6 7 9 10 9 8 7 6 6 5 5 5 5 5 5 5 5 5 6 6 6 6 6 6 5 6 5 4
4 4 6 6 6 4 2 2 1 3 2 2 2 0 3 6 7 6 5 5 5 5 5 5 7 8 8 7 6 6 5 5 5 5 5 5 6 5 5 6 6 6 5 5 5 5 6 5 4
4 4 5 4 4 2 3 1 1 2 2 2 2 4 5 9 8 6 4 4 4 4 3 4 3 4 5 6 6 6 6 6 6 6 6 5 5 5 6 6 7 6 6 5 5 5 6 5 4
3 4 5 3 4 4 2 2 1 1 3 2 2 4 7 7 7 6 5 5 4 4 3 3 3 3 3 3 5 5 5 5 5 5 5 4 4 5 6 7 7 7 6 6 5 5 5 5 3
4 5 4 4 5 4 4 3 2 3 4 3 3 5 7 7 6 6 5 4 4 3 3 2 2 2 2 1 3 3 4 4 4 4 4 4 4 4 5 5 6 6 6 4 4 4 4 3 3
5 6 5 4 4 3 4 4 4 5 4 3 1 3 6 6 6 6 5 4 3 3 3 2 2 2 2 1 1 2 3 3 2 3 4 3 3 3 4 4 4 4 4 3 3 2 3 3 3
8 6 5 4 3 4 5 6 6 7 4 2 2 3 3 3 3 3 3 3 3 3 3 3 3 2 2 1 1 2 2 2 3 2 3 4 3 2 3 3 3 3 3 3 2 1 1 1 1
4 5 6 6 5 3 5 7 6 6 2 1 2 3 3 3 3 2 2 2 2 3 3 2 2 2 2 2 2 2 2 2 3 2 2 3 3 3 3 3 3 3 3 3 2 2 1 1 2
4 6 8 7 6 3 3 8 7 4 2 3 2 2 2 2 2 1 1 2 2 2 2 2 2 2 2 2 2 2 2 3 2 3 2 2 2 2 2 2 2 2 3 3 2 2 1 1 2
5 6 6 5 6 4 3 7 3 2 4 4 2 2 2 1 1 0 1 1 1 2 1 1 1 2 2 2 1 2 2 2 2 3 3 2 2 2 3 2 2 2 3 2 2 2 1 2 2
5 5 7 5 5 4 6 7 3 2 3 3 2 2 1 1 1 1 1 1 2 2 2 1 1 1 1 1 2 2 2 2 2 3 3 3 3 2 3 2 2 2 3 2 1 2 2 2 3
5 6 7 7 3 4 7 8 4 2 2 2 1 1 1 1 0 1 1 1 2 2 2 1 1 1 1 1 1 2 2 1 2 2 3 3 3 3 3 2 2 2 2 2 2 2 2 3 3
8 9 10 8 5 5 8 9 6 2 1 1 0 0 1 1 1 2 2 2 2 2 2 1 1 0 1 1 1 2 2 1 1 1 2 3 3 3 3 2 2 2 2 2 2 2 3 2 2
8 9 10 8 6 7 8 9 6 2 2 0 1 1 1 2 2 2 3 3 2 1 1 1 1 1 1 1 2 1 2 2 2 2 2 2 3 3 3 3 3 2 2 2 2 2 2 1 1
8 7 8 9 9 7 8 7 4 1 2 2 2 2 3 3 3 3 3 3 3 2 0 1 1 1 1 1 1 1 2 1 1 1 1 2 3 3 3 3 3 3 2 2 2 3 3 2 1
8 5 8 9 7 5 4 5 4 2 1 1 1 2 3 4 4 4 4 3 3 3 1 1 1 1 1 1 1 2 2 2 2 2 1 2 3 3 3 3 3 3 2 2 2 2 2 3 3
6 8 10 10 8 8 7 6 3 1 1 1 2 3 5 6 6 6 5 4 3 4 3 1 1 1 1 1 1 2 2 2 2 2 3 2 2 3 3 3 3 3 2 2 2 2 2 2 3
6 8 10 8 5 6 7 6 2 1 1 2 4 6 7 7 7 7 7 6 5 5 4 3 2 1 0 0 1 1 2 3 3 2 2 2 2 2 2 3 3 2 2 2 2 3 3 3 3
5 4 3 2 4 5 1 2 1 4 6 7 7 7 7 7 7 7 8 7 6 5 4 4 2 2 1 1 1 0 1 3 3 3 2 2 2 1 2 2 2 2 2 2 2 2 3 3 3
5 3 2 4 4 4 3 3 2 7 9 10 10 9 9 8 7 7 7 6 6 6 5 4 3 3 2 1 1 0 1 1 2 2 2 2 2 2 2 2 2 2 2 2 2 2 2 2 2
3 3 4 5 6 5 4 3 3 8 10 10 11 11 10 9 7 7 7 7 6 5 5 4 3 3 3 2 2 2 2 2 2 2 3 2 2 2 2 2 2 2 2 2 2 2 2 2 2
2 3 3 3 3 4 5 2 2 5 6 8 9 9 9 9 8 7 6 6 6 5 5 5 5 4 3 3 2 2 2 2 2 3 3 3 3 2 2 2 2 2 2 2 2 2 2 2 2
1 2 3 4 4 3 4 1 4 6 6 7 7 7 8 8 8 7 7 6 6 6 6 6 6 6 4 3 3 3 2 2 2 2 2 2 3 3 2 2 2 2 2 2 2 2 2 2 2
2 2 2 2 4 4 3 0 6 7 7 8 8 8 9 8 8 7 7 7 7 7 6 6 6 5 5 4 3 3 3 2 3 2 3 3 3 3 2 2 2 2 2 2 2 2 2 2 2
Wind_Direction
285 261 250 256 243 235 243 245 259 78 60 40 23 2 17 22 28 99 132 97 106 118 127 132 130 131 129 126 122 118 117 116 117 115 111 110 109 105 106 106 101 101 100 98 98 95 91 89 88
288 271 260 243 246 243 241 212 83 72 71 63 34 355 33 63 72 99 106 99 110 115 121 126 126 131 131 129 127 124 118 116 116 118 114 111 108 105 110 111 105 101 102 98 99 97 94 92 91
276 266 258 245 243 253 309 59 77 79 84 90 103 15 20 58 81 102 111 110 111 111 114 119 125 128 129 130 130 125 120 115 114 116 119 116 111 107 107 108 104 103 102 100 97 95 96 93 91
271 238 243 250 257 270 311 50 88 101 106 108 139 107 76 47 68 99 113 117 113 110 111 120 124 127 128 128 129 127 125 123 121 122 123 121 117 113 114 113 107 109 107 106 103 100 98 95 93
243 251 237 239 249 262 337 33 84 130 154 170 205 125 104 78 86 102 112 115 114 110 113 125 127 126 128 129 128 130 132 127 123 121 124 125 120 117 118 117 114 115 115 111 110 109 107 103 97
258 245 244 244 245 232 181 63 109 207 178 140 168 157 107 113 107 110 108 107 107 111 117 127 131 129 129 130 126 126 135 133 129 124 125 125 126 122 118 120 119 117 122 123 122 119 114 112 104
268 264 253 269 276 263 155 77 58 279 243 163 123 158 126 122 109 109 109 103 102 103 113 127 135 134 133 132 131 126 129 134 136 129 128 128 131 127 123 124 124 124 123 129 129 129 124 121 116
290 286 256 253 265 273 84 84 32 338 325 41 55 283 125 124 111 103 101 100 101 102 110 123 135 139 139 137 141 141 144 150 151 147 141 140 140 141 141 131 132 136 134 135 134 137 136 131 131
275 256 255 264 278 314 79 43 97 22 338 32 35 36 84 117 120 121 117 115 119 119 118 124 124 129 143 154 153 151 157 163 164 162 163 161 151 141 141 138 139 141 145 148 145 145 147 146 150
222 240 251 301 337 351 13 322 327 236 252 225 149 93 104 122 137 152 158 156 148 139 128 113 117 115 137 154 150 163 166 165 170 163 166 162 148 145 140 139 142 144 148 156 160 161 167 161 159
225 242 277 312 350 348 329 305 302 269 261 246 185 150 145 152 158 167 169 165 160 151 136 120 114 119 123 125 151 152 154 156 173 166 156 158 142 131 127 132 139 142 143 144 162 169 181 178 169
248 262 283 300 341 333 299 296 284 256 266 328 36 119 146 163 170 177 181 172 157 149 149 144 136 148 145 136 152 147 144 145 156 164 163 149 123 120 116 120 135 133 135 140 146 166 187 183 172
246 259 276 288 288 284 289 273 266 262 272 317 78 115 150 168 176 174 173 165 157 156 161 162 159 176 158 147 167 150 137 139 138 146 159 145 133 138 134 127 128 127 136 135 143 142 116 104 107
294 292 278 270 263 257 272 272 254 251 230 215 164 160 179 189 189 178 166 173 173 166 160 156 172 177 161 178 176 151 138 140 133 136 135 137 137 137 142 136 121 115 119 134 146 143 136 83 80
281 277 265 246 239 220 273 267 233 230 198 204 199 176 174 181 160 180 181 188 179 166 153 161 176 170 175 190 182 130 126 130 125 137 136 120 123 136 128 123 122 120 128 130 124 105 95 96 76
246 251 256 234 222 195 217 263 235 185 192 208 197 180 167 174 164 141 87 102 125 127 137 170 181 163 187 179 151 122 116 114 121 137 143 135 118 116 113 114 117 118 119 103 111 107 94 91 87
226 258 263 263 214 200 217 258 251 259 225 203 183 172 154 118 72 42 44 84 100 114 117 118 112 167 181 166 144 134 132 124 127 132 138 151 149 136 114 117 114 115 113 112 116 118 116 106 92
279 275 272 271 247 232 239 256 265 270 245 225 202 182 160 115 350 38 51 74 94 112 109 101 108 157 152 142 151 140 144 137 125 129 143 151 150 149 129 124 126 119 121 114 118 137 122 114 111
286 286 284 286 307 288 259 264 271 244 262 259 272 196 63 32 33 49 61 66 86 90 94 106 124 131 118 135 163 161 179 166 150 122 131 141 142 146 135 137 132 126 140 147 144 130 125 116 115
284 284 290 297 312 300 273 269 269 233 218 332 9 37 52 14 29 39 48 51 58 84 95 135 152 157 149 169 176 175 167 170 168 145 130 130 136 144 147 142 150 139 140 148 150 138 132 135 127
281 274 291 298 306 280 275 271 244 168 92 46 34 33 32 31 22 33 44 36 28 26 61 176 155 156 137 147 156 155 134 128 133 161 154 108 117 127 129 137 132 135 146 167 175 165 146 158 174
285 317 303 294 295 278 263 272 237 177 109 71 44 49 30 30 27 25 29 26 18 1 6 112 138 145 144 145 161 168 171 171 179 172 157 124 116 114 118 128 127 133 139 161 182 168 161 158 176
293 314 290 277 270 275 260 250 262 133 355 25 49 52 43 36 33 25 17 10 18 17 23 46 73 108 148 155 178 187 179 172 154 147 145 143 123 112 120 126 124 132 142 161 168 168 161 159 169
320 308 282 258 244 256 244 228 291 7 19 46 49 47 41 36 30 24 17 15 16 21 27 31 43 24 63 132 173 190 171 153 143 136 142 144 133 120 119 126 126 131 140 159 168 175 168 170 167
328 326 314 278 221 236 223 213 260 39 41 50 48 39 29 29 26 21 18 12 9 15 19 21 29 20 27 91 119 203 161 149 146 145 153 149 146 144 163 137 141 145 154 156 152 171 177 175 171
289 284 268 272 270 291 280 225 100 57 52 47 43 36 27 23 19 15 14 12 6 7 12 14 21 18 29 57 65 91 97 123 128 121 120 137 157 161 151 144 142 146 153 149 147 159 178 167 171
298 278 291 292 290 281 254 181 112 43 39 34 29 23 17 13 12 11 11 8 3 7 8 8 14 14 18 32 43 56 61 60 85 97 96 93 73 108 112 124 135 137 146 141 145 154 161 162 173
292 325 314 283 281 269 262 257 7 15 16 19 21 14 6 5 4 6 6 4 4 6 6 11 15 13 19 27 34 44 52 65 68 86 80 79 70 76 111 120 140 139 130 120 136 142 136 145 165
303 289 278 282 276 280 282 9 34 37 35 24 18 11 3 0 1 1 1 0 4 10 14 11 10 13 13 21 31 44 51 65 70 81 83 81 66 76 104 119 133 138 137 140 144 153 147 154 152
19 331 321 290 291 289 282 273 43 49 39 28 16 10 3 2 0 1 1 3 7 8 9 7 5 8 9 15 29 43 51 66 74 76 73 69 69 61 78 87 117 111 115 120 141 153 149 157 161
Height
1500 1501 1503 1505 1507 1507 1503 1490 1483 1487 1489 1492 1494 1494 1496 1500 1503 1513 1512 1511 1511 1511 1513 1515 1517 1518 1520 1521 1523 1524 1525 1527 1528 1529 1530 1531 1532 1533 1534 1535 1536 1537 1538 1539 1540 1541 1542 1543 1544
1500 1503 1505 1505 1507 1509 1499 1488 1487 1489 1492 1494 1496 1497 1498 1502 1505 1508 1509 1511 1511 1512 1513 1514 1516 1518 1519 1521 1522 1524 1525 1527 1528 1529 1530 1531 1532 1533 1534 1535 1536 1537 1538 1539 1540 1541 1542 1544 1545
1501 1503 1505 1503 1502 1501 1495 1487 1488 1490 1493 1496 1498 1499 1501 1505 1506 1508 1509 1510 1511 1512 1513 1514 1516 1518 1519 1521 1522 1524 1525 1527 1528 1529 1530 1531 1532 1533 1534 1535 1536 1537 1538 1539 1540 1542 1543 1544 1545
1503 1504 1504 1504 1501 1492 1488 1487 1488 1491 1495 1497 1498 1501 1503 1507 1507 1508 1509 1511 1512 1512 1513 1514 1516 1518 1519 1521 1522 1523 1525 1526 1527 1529 1530 1531 1532 1533 1534 1535 1536 1537 1538 1539 1541 1542 1543 1544 1545
1503 1503 1504 1503 1497 1490 1487 1487 1490 1492 1494 1496 1498 1500 1504 1507 1507 1508 1509 1511 1512 1512 1513 1514 1516 1517 1519 1520 1521 1523 1524 1526 1527 1528 1529 1530 1531 1533 1534 1535 1536 1537 1538 1539 1540 1542 1543 1544 1546
1504 1501 1504 1502 1493 1488 1487 1489 1491 1492 1494 1496 1498 1500 1504 1506 1506 1507 1509 1511 1512 1512 1513 1514 1516 1517 1518 1519 1521 1522 1523 1525 1526 1528 1529 1530 1531 1532 1533 1535 1536 1537 1538 1539 1540 1541 1543 1544 1545
1504 1501 1501 1496 1493 1489 1488 1490 1491 1493 1494 1496 1498 1500 1503 1505 1505 1507 1508 1510 1511 1512 1513 1514 1515 1516 1518 1519 1520 1521 1523 1524 1526 1527 1528 1530 1531 1532 1533 1534 1535 1536 1538 1539 1540 1541 1542 1544 1545
1502 1501 1497 1494 1493 1490 1489 1490 1492 1494 1495 1497 1498 1499 1501 1503 1504 1506 1508 1509 1510 1511 1512 1513 1514 1516 1517 1518 1519 1521 1522 1523 1525 1526 1527 1529 1530 1531 1532 1533 1535 1536 1537 1538 1539 1541 1542 1543 1545
1501 1504 1499 1493 1491 1490 1490 1492 1493 1495 1496 1497 1498 1499 1500 1501 1503 1505 1507 1508 1509 1510 1511 1512 1513 1515 1516 1517 1519 1520 1521 1522 1523 1525 1526 1528 1529 1530 1531 1533 1534 1535 1536 1537 1539 1540 1542 1543 1544
1500 1502 1495 1491 1490 1490 1491 1492 1493 1495 1496 1497 1498 1499 1500 1501 1502 1504 1505 1507 1508 1509 1510 1511 1512 1514 1515 1516 1518 1519 1520 1521 1522 1523 1525 1526 1527 1529 1530 1531 1533 1534 1535 1537 1538 1539 1541 1542 1543
1497 1496 1492 1492 1491 1492 1492 1493 1494 1495 1495 1495 1496 1497 1498 1500 1501 1503 1504 1505 1506 1508 1509 1510 1511 1512 1514 1515 1516 1517 1518 1520 1521 1522 1523 1525 1526 1527 1529 1530 1531 1533 1534 1535 1537 1538 1540 1541 1542
1495 1493 1493 1492 1493 1493 1493 1493 1494 1493 1494 1494 1494 1495 1497 1498 1499 1501 1502 1503 1505 1506 1507 1508 1509 1511 1512 1513 1515 1516 1517 1518 1519 1521 1522 1524 1525 1526 1527 1529 1530 1531 1533 1534 1536 1537 1538 1540 1541
1493 1492 1492 1492 1493 1493 1493 1493 1493 1492 1492 1492 1493 1494 1495 1496 1498 1499 1501 1501 1502 1503 1505 1506 1507 1509 1510 1512 1513 1514 1515 1517 1518 1519 1521 1522 1523 1524 1526 1527 1528 1530 1531 1533 1534 1536 1537 1538 1540
1493 1492 1492 1492 1491 1492 1492 1491 1491 1489 1490 1491 1492 1492 1494 1495 1496 1497 1498 1499 1500 1501 1502 1503 1505 1506 1508 1509 1511 1512 1513 1515 1516 1518 1519 1520 1522 1523 1524 1525 1527 1528 1529 1531 1532 1534 1535 1537 1538
1493 1493 1491 1489 1489 1490 1492 1490 1487 1487 1488 1489 1490 1491 1492 1493 1494 1495 1495 1496 1497 1498 1499 1500 1502 1503 1505 1507 1508 1510 1511 1513 1514 1515 1517 1518 1520 1521 1522 1523 1525 1526 1528 1529 1531 1532 1534 1535 1536
1492 1493 1492 1486 1486 1487 1493 1491 1485 1485 1486 1487 1489 1490 1491 1491 1492 1493 1493 1493 1494 1495 1496 1497 1499 1500 1502 1504 1505 1507 1508 1510 1511 1513 1514 1516 1517 1519 1520 1521 1523 1524 1526 1527 1529 1530 1531 1533 1534
1492 1494 1491 1487 1483 1484 1488 1487 1484 1484 1484 1485 1487 1488 1489 1489 1490 1490 1491 1491 1491 1492 1492 1494 1495 1497 1498 1500 1502 1504 1506 1507 1509 1510 1512 1513 1515 1516 1517 1519 1520 1522 1523 1525 1526 1528 1530 1531 1532
1496 1493 1489 1486 1482 1483 1485 1484 1483 1483 1483 1484 1485 1486 1487 1487 1488 1488 1488 1489 1489 1489 1490 1490 1492 1493 1495 1497 1499 1501 1502 1504 1506 1507 1509 1510 1512 1513 1515 1516 1518 1519 1521 1522 1524 1526 1527 1529 1530
1493 1492 1490 1486 1482 1484 1483 1482 1481 1481 1482 1482 1484 1484 1485 1486 1487 1487 1487 1486 1487 1486 1487 1488 1489 1490 1492 1493 1495 1497 1499 1501 1502 1504 1506 1507 1509 1511 1512 1513 1515 1517 1518 1520 1522 1524 1525 1526 1528
1493 1493 1491 1486 1483 1484 1482 1480 1479 1479 1480 1481 1482 1483 1484 1485 1485 1485 1485 1484 1484 1484 1484 1485 1486 1487 1488 1490 1492 1494 1496 1498 1499 1501 1503 1504 1506 1508 1509 1510 1512 1514 1516 1518 1519 1521 1522 1524 1526
1493 1494 1493 1491 1487 1483 1482 1481 1478 1476 1478 1480 1481 1482 1483 1483 1483 1483 1483 1482 1482 1482 1482 1482 1483 1484 1486 1488 1490 1491 1493 1494 1496 1497 1499 1501 1503 1504 1506 1508 1509 1511 1513 1514 1516 1518 1519 1521 1523
1495 1492 1492 1491 1493 1491 1484 1489 1478 1476 1479 1479 1481 1481 1482 1483 1483 1483 1482 1481 1480 1480 1480 1480 1481 1482 1483 1485 1486 1488 1489 1490 1492 1494 1496 1498 1500 1501 1503 1504 1506 1508 1509 1511 1513 1515 1516 1518 1520
1494 1492 1491 1490 1491 1492 1485 1489 1481 1476 1480 1480 1482 1482 1482 1483 1482 1482 1481 1481 1480 1479 1479 1479 1479 1480 1481 1482 1484 1485 1487 1488 1489 1491 1493 1494 1496 1498 1500 1501 1503 1504 1506 1508 1510 1511 1513 1515 1517
1495 1493 1488 1486 1490 1495 1483 1485 1485 1482 1482 1482 1483 1483 1483 1483 1483 1482 1481 1480 1479 1478 1477 1477 1478 1478 1479 1480 1481 1483 1484 1485 1486 1488 1489 1491 1493 1495 1497 1498 1500 1501 1503 1505 1506 1508 1509 1511 1513
1499 1501 1500 1494 1493 1489 1478 1483 1490 1485 1484 1484 1485 1485 1485 1484 1483 1482 1481 1479 1479 1478 1476 1476 1476 1477 1477 1478 1479 1481 1482 1483 1484 1485 1486 1488 1490 1492 1493 1495 1497 1498 1500 1502 1503 1505 1506 1508 1509
1501 1501 1506 1504 1494 1485 1480 1484 1490 1488 1487 1487 1487 1487 1486 1485 1484 1483 1482 1480 1479 1478 1476 1475 1475 1475 1476 1476 1477 1479 1480 1481 1482 1483 1484 1485 1487 1489 1491 1492 1494 1496 1497 1499 1500 1502 1503 1505 1506
1502 1502 1499 1502 1496 1494 1485 1483 1488 1488 1489 1489 1489 1488 1488 1486 1485 1484 1482 1481 1479 1478 1476 1475 1474 1474 1474 1475 1476 1477 1478 1479 1480 1481 1482 1483 1485 1486 1488 1490 1491 1493 1494 1496 1497 1499 1500 1502 1503
1503 1503 1505 1505 1502 1495 1484 1484 1496 1495 1494 1493 1492 1491 1490 1488 1486 1485 1483 1481 1480 1478 1477 1475 1474 1474 1473 1474 1474 1475 1476 1477 1478 1479 1480 1481 1482 1483 1485 1486 1488 1490 1491 1493 1494 1495 1497 1498 1500
1505 1506 1504 1503 1500 1500 1496 1499 1500 1499 1497 1496 1495 1494 1492 1490 1487 1485 1483 1482 1480 1478 1477 1475 1474 1473 1472 1473 1473 1473 1474 1475 1476 1477 1478 1479 1480 1481 1482 1484 1485 1487 1488 1490 1491 1492 1493 1495 1496
1504 1506 1507 1511 1507 1501 1503 1508 1501 1500 1499 1498 1497 1495 1493 1491 1489 1486 1484 1482 1480 1478 1476 1475 1473 1472 1472 1472 1472 1472 1473 1474 1474 1475 1476 1477 1477 1478 1480 1481 1482 1483 1485 1487 1488 1489 1490 1492 1493